• In Latvia
  • List of Countries
  • For 7 days
  • Water Temperature
  • Satellite Maps
  • Weather Map
  • Weather Widgets
  • user-avatar
    Login

    Hourly Weather Akhaltsikhe

    Today, 18 February, Sunday

    Time Temperature Precipitation Wind Pressure Humidity
    00:00 +1°C° 0 mm 1 mps 647 mmHg 83%
    01:00 +1°C° 0.3 mm 1 mps 647 mmHg 85%
    02:00 +1°C° 0.3 mm 1 mps 646 mmHg 86%
    03:00 +2°C° 0 mm 1 mps 646 mmHg 89%
    04:00 +1°C° 0.3 mm 1 mps 646 mmHg 89%
    05:00 +1°C° 0.3 mm 1 mps 646 mmHg 90%
    06:00 +1°C° 0.3 mm 1 mps 646 mmHg 90%
    07:00 +2°C° 0.1 mm 1 mps 646 mmHg 88%
    08:00 +2°C° 0.1 mm 1 mps 646 mmHg 87%
    09:00 +1°C° 0.1 mm 0 mps 646 mmHg 85%
    10:00 +3°C° 0.1 mm 1 mps 646 mmHg 84%
    11:00 +4°C° 0.1 mm 1 mps 646 mmHg 83%
    12:00 +3°C° 0.1 mm 2 mps 646 mmHg 83%
    13:00 +3°C° 0.1 mm 2 mps 645 mmHg 84%
    14:00 +3°C° 0.1 mm 2 mps 645 mmHg 85%
    15:00 +2°C° 0.1 mm 3 mps 645 mmHg 87%
    16:00 +1°C° 0.2 mm 3 mps 645 mmHg 89%
    17:00 +2°C° 0.2 mm 2 mps 645 mmHg 91%
    18:00 +1°C° 0.2 mm 2 mps 645 mmHg 94%
    19:00 +1°C° 0.1 mm 2 mps 646 mmHg 94%
    20:00 +1°C° 0.1 mm 2 mps 646 mmHg 94%
    21:00 -1°C° 0.1 mm 2 mps 646 mmHg 94%
    22:00 -1°C° 0.1 mm 2 mps 646 mmHg 94%
    23:00 -1°C° 0.1 mm 2 mps 646 mmHg 94%

    Tomorrow, 19 February, Monday

    Time Temperature Precipitation Wind Pressure Humidity
    00:00 +1°C° 0.1 mm 1 mps 646 mmHg 93%
    01:00 +1°C° 0.1 mm 1 mps 646 mmHg 93%
    02:00 +1°C° 0.1 mm 1 mps 647 mmHg 94%
    03:00 0°C° 0.1 mm 1 mps 647 mmHg 94%
    04:00 0°C° 0.1 mm 1 mps 647 mmHg 94%
    05:00 0°C° 0.1 mm 1 mps 647 mmHg 94%
    06:00 0°C° 0.1 mm 1 mps 647 mmHg 94%
    07:00 0°C° 0 mm 1 mps 647 mmHg 92%
    08:00 +1°C° 0 mm 1 mps 647 mmHg 90%
    09:00 +1°C° 0 mm 1 mps 647 mmHg 88%
    10:00 +2°C° 0 mm 1 mps 647 mmHg 85%
    11:00 +3°C° 0 mm 1 mps 647 mmHg 83%
    12:00 +4°C° 0 mm 1 mps 647 mmHg 81%
    13:00 +4°C° 0 mm 1 mps 647 mmHg 80%
    14:00 +5°C° 0 mm 1 mps 647 mmHg 79%
    15:00 +5°C° 0 mm 1 mps 646 mmHg 79%
    16:00 +4°C° 0 mm 1 mps 646 mmHg 82%
    17:00 +3°C° 0 mm 1 mps 646 mmHg 85%
    18:00 +1°C° 0 mm 0 mps 646 mmHg 88%
    19:00 +1°C° 0 mm 1 mps 646 mmHg 87%
    20:00 +1°C° 0 mm 1 mps 647 mmHg 87%
    21:00 0°C° 0 mm 1 mps 647 mmHg 87%
    22:00 0°C° 0 mm 1 mps 647 mmHg 85%
    23:00 0°C° 0 mm 1 mps 647 mmHg 83%

    Day after tomorrow, 20 February, Tuesday

    Time Temperature Precipitation Wind Pressure Humidity
    00:00 -1°C° 0 mm 1 mps 647 mmHg 81%
    01:00 -1°C° 0 mm 1 mps 647 mmHg 79%
    02:00 -3°C° 0 mm 2 mps 646 mmHg 76%
    03:00 -3°C° 0 mm 2 mps 646 mmHg 74%
    04:00 -3°C° 0 mm 2 mps 646 mmHg 73%
    05:00 -3°C° 0 mm 2 mps 646 mmHg 71%
    06:00 -3°C° 0 mm 2 mps 646 mmHg 70%
    07:00 -2°C° 0 mm 2 mps 646 mmHg 69%
    08:00 +1°C° 0 mm 1 mps 647 mmHg 68%
    09:00 +2°C° 0 mm 1 mps 647 mmHg 67%
    10:00 +4°C° 0 mm 1 mps 647 mmHg 65%
    11:00 +5°C° 0 mm 1 mps 647 mmHg 63%
    12:00 +6°C° 0 mm 1 mps 648 mmHg 62%
    13:00 +6°C° 0 mm 1 mps 647 mmHg 63%
    14:00 +6°C° 0 mm 1 mps 647 mmHg 64%
    15:00 +6°C° 0 mm 1 mps 647 mmHg 64%
    16:00 +5°C° 0 mm 1 mps 647 mmHg 68%
    17:00 +3°C° 0 mm 0 mps 647 mmHg 72%
    18:00 +2°C° 0 mm 0 mps 647 mmHg 76%
    19:00 +2°C° 0 mm 1 mps 647 mmHg 77%
    20:00 +2°C° 0 mm 1 mps 647 mmHg 78%
    21:00 +1°C° 0 mm 1 mps 647 mmHg 78%
    22:00 +1°C° 0 mm 1 mps 647 mmHg 78%
    23:00 +1°C° 0 mm 1 mps 647 mmHg 78%

    21 February, Wednesday

    Time Temperature Precipitation Wind Pressure Humidity
    00:00 0°C° 0 mm 1 mps 647 mmHg 78%
    01:00 0°C° 0 mm 1 mps 647 mmHg 78%
    02:00 0°C° 0 mm 1 mps 646 mmHg 78%
    03:00 0°C° 0 mm 1 mps 646 mmHg 78%
    04:00 0°C° 0 mm 1 mps 646 mmHg 78%
    05:00 -3°C° 0 mm 2 mps 646 mmHg 78%
    06:00 -3°C° 0 mm 2 mps 646 mmHg 78%
    07:00 -2°C° 0 mm 2 mps 647 mmHg 76%
    08:00 -1°C° 0 mm 2 mps 647 mmHg 74%
    09:00 +1°C° 0 mm 2 mps 647 mmHg 73%
    10:00 +4°C° 0 mm 1 mps 647 mmHg 71%
    11:00 +5°C° 0 mm 1 mps 647 mmHg 69%
    12:00 +6°C° 0 mm 1 mps 647 mmHg 67%
    13:00 +6°C° 0 mm 1 mps 647 mmHg 67%
    14:00 +7°C° 0 mm 1 mps 647 mmHg 67%
    15:00 +7°C° 0 mm 1 mps 646 mmHg 67%
    16:00 +6°C° 0 mm 1 mps 646 mmHg 70%
    17:00 +4°C° 0 mm 1 mps 646 mmHg 74%
    18:00 +3°C° 0 mm 1 mps 646 mmHg 78%
    19:00 +3°C° 0 mm 1 mps 646 mmHg 79%
    20:00 +2°C° 0 mm 1 mps 646 mmHg 79%
    21:00 +2°C° 0 mm 1 mps 647 mmHg 80%
    22:00 +1°C° 0 mm 2 mps 647 mmHg 80%
    23:00 +1°C° 0 mm 2 mps 647 mmHg 80%

    22 February, Thursday

    Time Temperature Precipitation Wind Pressure Humidity
    00:00 -1°C° 0 mm 2 mps 647 mmHg 80%
    01:00 -1°C° 0 mm 2 mps 647 mmHg 80%
    02:00 -1°C° 0 mm 2 mps 646 mmHg 80%
    03:00 -1°C° 0 mm 2 mps 646 mmHg 80%
    04:00 -1°C° 0 mm 2 mps 646 mmHg 80%
    05:00 -2°C° 0 mm 2 mps 646 mmHg 80%
    06:00 -2°C° 0 mm 2 mps 646 mmHg 80%
    07:00 -1°C° 0 mm 2 mps 646 mmHg 78%
    08:00 +1°C° 0 mm 2 mps 647 mmHg 75%
    09:00 +2°C° 0 mm 2 mps 647 mmHg 73%
    10:00 +4°C° 0 mm 2 mps 647 mmHg 71%
    11:00 +5°C° 0 mm 2 mps 647 mmHg 69%
    12:00 +6°C° 0 mm 2 mps 646 mmHg 67%
    13:00 +7°C° 0 mm 2 mps 646 mmHg 67%
    14:00 +7°C° 0 mm 2 mps 646 mmHg 66%
    15:00 +7°C° 0 mm 2 mps 646 mmHg 66%
    16:00 +6°C° 0 mm 2 mps 646 mmHg 69%
    17:00 +5°C° 0 mm 2 mps 646 mmHg 73%
    18:00 +3°C° 0 mm 2 mps 645 mmHg 76%
    19:00 +3°C° 0 mm 2 mps 645 mmHg 77%
    20:00 +2°C° 0 mm 2 mps 646 mmHg 77%
    21:00 +1°C° 0 mm 2 mps 646 mmHg 78%
    22:00 +1°C° 0 mm 2 mps 646 mmHg 78%
    23:00 +1°C° 0 mm 2 mps 645 mmHg 77%

    23 February, Friday

    Time Temperature Precipitation Wind Pressure Humidity
    00:00 -1°C° 0 mm 2 mps 645 mmHg 77%
    01:00 -1°C° 0 mm 2 mps 645 mmHg 77%
    02:00 -1°C° 0 mm 2 mps 645 mmHg 77%
    03:00 -1°C° 0 mm 2 mps 645 mmHg 76%
    04:00 -1°C° 0 mm 2 mps 645 mmHg 76%
    05:00 -1°C° 0 mm 3 mps 644 mmHg 76%
    06:00 -1°C° 0 mm 3 mps 644 mmHg 75%
    07:00 0°C° 0 mm 3 mps 644 mmHg 73%
    08:00 +1°C° 0 mm 3 mps 645 mmHg 72%
    09:00 +2°C° 0 mm 3 mps 645 mmHg 70%
    10:00 +3°C° 0 mm 3 mps 645 mmHg 68%
    11:00 +5°C° 0 mm 3 mps 645 mmHg 66%
    12:00 +7°C° 0 mm 3 mps 644 mmHg 64%
    13:00 +7°C° 0 mm 3 mps 644 mmHg 64%
    14:00 +7°C° 0 mm 3 mps 644 mmHg 64%
    15:00 +7°C° 0 mm 3 mps 644 mmHg 64%
    16:00 +5°C° 0 mm 3 mps 644 mmHg 67%
    17:00 +4°C° 0 mm 3 mps 644 mmHg 71%
    18:00 +4°C° 0 mm 2 mps 644 mmHg 74%
    19:00 +3°C° 0 mm 2 mps 644 mmHg 74%
    20:00 +3°C° 0 mm 2 mps 644 mmHg 75%
    21:00 +1°C° 0 mm 3 mps 644 mmHg 75%
    22:00 +1°C° 0 mm 3 mps 644 mmHg 75%
    23:00 +1°C° 0 mm 3 mps 644 mmHg 75%
    Show more